Location: Grust
(42.8833°N, 0.0333°W)
Time: 13:46:10
(UTC+00:00)

Lacrosse 5 - Pass Details

Date: 25 October 2020
Orbit: 716 x 723 km, 57.0° (Epoch: 06 November)

Event Time Altitude Azimuth Distance (km) Brightness Sun altitude
Rises 18:17:02 0° 290° (WNW) 3,120 6.4 -14.4°
Reaches altitude 10° 18:20:14 10° 311° (NW) 2,201 5.0 -15.0°
Maximum altitude 18:23:31 17° 352° (N) 1,772 3.9 -15.6°
Drops below altitude 10° 18:26:48 10° 32° (NNE) 2,204 4.1 -16.2°
Enters shadow 18:26:52 10° 33° (NNE) 2,219 4.1 -16.2°
